Main page
Satellite images Climate Cyclones Lightning AirportsFAQ Languages Contact Newsletter About
Weather : Europe Africa North America South America Asia Australia-Oceania Others

, Phuket, Phuket International Airport

48565

latitude: , longitude: Thailand, elevation: 08-07N m


METAR: VTSP 200130Z 27012KT 9999 SCT018 30/24 Q1012 NOSIG